This is the latest recevied weather packets stored in our database for station/object NW5W-12. If no packets are shown the sender has not sent any weather packets the latest 10 day(s).
| Time | Temp. | Humidity | Pressure | Rain* | Wind** | Luminosity | Snow |
|---|---|---|---|---|---|---|---|
| 1777666731 | 15.56° C | 25% | 1020.5 hPa | 0 mm | - | - | - |
| 1777666430 | 15° C | 27% | 1020.4 hPa | 0 mm | - | - | - |
| 1777666131 | 14.44° C | 26% | 1020.5 hPa | 0 mm | - | - | - |
| 1777665831 | 15° C | 24% | 1020.5 hPa | 0 mm | - | - | - |
| 1777665531 | 14.44° C | 27% | 1020.5 hPa | 0 mm | - | - | - |
| 1777665231 | 13.89° C | 26% | 1020.6 hPa | 0 mm | - | - | - |
| 1777664931 | 13.89° C | 27% | 1020.6 hPa | 0 mm | - | - | - |
| 1777664631 | 13.89° C | 24% | 1020.6 hPa | 0 mm | - | - | - |
| 1777664331 | 13.89° C | 26% | 1020.6 hPa | 0 mm | - | - | - |
| 1777664031 | 14.44° C | 26% | 1020.6 hPa | 0 mm | - | - | - |
| 1777663731 | 14.44° C | 25% | 1020.6 hPa | 0 mm | - | - | - |
| 1777663431 | 14.44° C | 26% | 1020.7 hPa | 0 mm | - | - | - |
| 1777663131 | 13.89° C | 27% | 1020.7 hPa | 0 mm | - | - | - |
| 1777662831 | 13.89° C | 29% | 1020.8 hPa | 0 mm | - | - | - |
| 1777662531 | 13.33° C | 31% | 1020.8 hPa | 0 mm | - | - | - |
| 1777662231 | 12.78° C | 30% | 1020.8 hPa | 0 mm | - | - | - |
| 1777661931 | 12.78° C | 29% | 1020.8 hPa | 0 mm | - | - | - |
| 1777661631 | 13.33° C | 27% | 1020.9 hPa | 0 mm | - | - | - |
| 1777661331 | 13.33° C | 31% | 1020.9 hPa | 0 mm | - | - | - |
| 1777661031 | 13.33° C | 30% | 1020.9 hPa | 0 mm | - | - | - |
| 1777660731 | 13.89° C | 30% | 1021 hPa | 0 mm | - | - | - |
| 1777660431 | 12.78° C | 35% | 1021 hPa | 0 mm | - | - | - |
| 1777660131 | 12.78° C | 29% | 1021 hPa | 0 mm | - | - | - |
| 1777659831 | 12.78° C | 30% | 1021.1 hPa | 0 mm | - | - | - |
| 1777659531 | 12.22° C | 31% | 1021.1 hPa | 0 mm | - | - | - |
* Rain since midnight (hover to see other rain measurements)
** Current wind speed in m/s (hover to see current wind gust speed)